Regional Weather Roundup
Issued by NWS

Home | Current Version | Previous Version | Graphics & Text | Print | Product List | Glossary On
Versions: 1 2 3 4 5 6 7 8 9 10 11 12 13 14 15 16 17 18 19 20 21 22 23 24 25 26 27 28 29 30 31 32 33 34 35 36 37 38 39 40 41 42 43 44 45 46 47 48 49 50
000
ASUS43 KFSD 242102
RWRSD

WEATHER ROUNDUP FOR SOUTH DAKOTA
NATIONAL WEATHER SERVICE SIOUX FALLS SD
400 PM CDT SUN SEP 24 2017

NOTE: "FAIR" INDICATES FEW OR NO CLOUDS BELOW 12,000 FEET WITH NO
SIGNIFICANT WEATHER AND/OR OBSTRUCTIONS TO VISIBILITY.


SDZ001>005-009-010-012>017-242200-
NORTHWEST AND NORTH CENTRAL SOUTH DAKOTA

CITY           SKY/WX    TMP DP  RH WIND       PRES   REMARKS
BUFFALO          N/A     48  41  76 N12       30.02S
FAITH            N/A     50  46  86 N15       30.05R
MOBRIDGE       CLOUDY    55  48  77 N14G22    29.99R
$$

SDZ012>016-024>037-041>051-057-063-072>074-242200-
SOUTHWEST AND SOUTH CENTRAL SOUTH DAKOTA

CITY           SKY/WX    TMP DP  RH WIND       PRES   REMARKS
RAPID CTY ARPT CLOUDY    52  43  71 N18       30.06F
PIERRE         CLOUDY    55  47  74 NW15      30.00R
CUSTER         LGT RAIN  43  39  86 E7        30.05R FOG
ELLSWORTH AFB  CLOUDY    50  43  76 N16       30.06
PHILIP         CLOUDY    53  47  79 NW13      30.04F
PINE RIDGE     CLOUDY    50  45  83 NE14      30.05R
SPEARFISH      FAIR      43  43 100 NW6       30.09S FOG
WINNER         CLOUDY    56  50  80 NW13      30.00S
$$

SDZ004>011-016>023-039-040-242200-
NORTHEAST SOUTH DAKOTA

CITY           SKY/WX    TMP DP  RH WIND       PRES   REMARKS
ABERDEEN       CLOUDY    55  51  86 N13       29.95R
WATERTOWN      CLOUDY    57  56  96 W15       29.91R
BROOKINGS      CLOUDY    61  58  90 W13       29.91F
SISSETON         N/A     58  57  97 NW10      29.89R
$$

SDZ017-020-022-023-036>040-048>070-242200-
SOUTHEAST SOUTH DAKOTA

CITY           SKY/WX    TMP DP  RH WIND       PRES   REMARKS
SIOUX FALLS    PTSUNNY   70  61  73 W12       29.90S
HURON          LGT RAIN  56  54  93 NW9       29.95F
CHAMBERLAIN    CLOUDY    57  53  87 NW14      29.99R
MITCHELL       LGT RAIN  57  55  93 N7        29.95S
YANKTON        LGT RAIN  61  56  83 NW15      29.93S
$$

ABBREVIATIONS USED IN REMARKS
   TC - TEMPERATURE IN CELSIUS
  WCI - WIND CHILL INDEX
   HX - HEAT INDEX
  VSB - VISIBILITY





USA.gov is the U.S. government's official web portal to all federal, state and local government web resources and services.